Location: Armstrong
(40.9123°N, 82.0110°W)
Time: 07:45:48
(UTC+00:00)

CSL-04 Rocket - Pass Details

Date: 29 October 2020
Orbit: 805 x 861 km, 98.9° (Epoch: 29 November)

Event Time Altitude Azimuth Distance (km) Brightness Sun altitude
Exits shadow 23:39:11 - 134° (SE) 2,903 6.1 -14.2°
Reaches altitude 10° 23:40:21 10° 129° (SE) 2,489 5.7 -14.4°
Maximum altitude 23:45:14 33° 67° (ENE) 1,396 4.3 -15.3°
Drops below altitude 10° 23:50:06 10° 5° (N) 2,483 6.0 -16.2°
Sets 23:52:40 0° 356° (N) 3,415 6.9 -16.7°
